Location: Ladrillo (historical)
(32.8195°N, 117.2231°W)
Time: 16:21:28
(UTC+00:00)

Vanguard 2 - All Passes

Search period start: 26 February 2021 00:00
Search period end: 08 March 2021 00:00
Orbit: 552 x 2938 km, 32.9° (Epoch: 25 February)

Date Brightness Start Highest point End Pass type
(mag) Time Alt. Az. Time Alt. Az. Time Alt. Az.
26 Feb - 08:39:01 10° SE 08:40:00 10° SE 08:41:00 10° ESE visible
26 Feb - 10:36:20 10° SSW 10:49:09 40° SE 11:04:54 10° E visible
26 Feb - 12:44:28 10° WSW 13:00:51 74° SSE 13:18:11 10° ENE visible
26 Feb - 14:56:13 10° W 15:14:25 90° N 15:29:31 10° E daylight
26 Feb - 17:09:51 10° W 17:27:22 77° SSW 17:39:14 10° ESE daylight
26 Feb - 19:24:27 10° W 19:37:32 39° SW 19:46:11 10° SSE daylight
27 Feb - 08:49:58 10° SSE 08:57:10 17° SE 09:05:40 10° E visible
27 Feb - 10:53:14 10° SW 11:06:39 49° SE 11:23:23 10° ENE visible
27 Feb - 13:02:16 10° WSW 13:18:54 81° SSE 13:36:16 10° E visible
27 Feb - 15:14:24 10° W 15:32:39 90° N 15:47:31 10° E daylight
27 Feb - 17:28:04 10° WNW 17:45:14 69° SSW 17:56:51 10° SE daylight
27 Feb - 19:43:13 10° W 19:54:47 29° SW 20:02:52 10° SSE daylight
28 Feb - 09:05:09 10° S 09:14:19 24° SE 09:25:57 10° E visible
28 Feb - 11:10:26 10° SW 11:24:16 59° SSE 11:41:41 10° ENE visible
28 Feb - 13:20:11 10° WSW 13:37:03 86° S 13:54:20 10° E visible
28 Feb - 15:32:36 10° W 15:50:51 87° S 16:05:27 10° ESE daylight
28 Feb - 17:46:19 10° WNW 18:02:58 59° SSW 18:14:19 10° SE daylight
28 Feb - 20:02:31 10° W 20:11:55 21° SW 20:18:59 10° S daylight
01 Mar - 09:21:16 10° SSW 09:31:31 32° SE 09:45:13 10° E visible
01 Mar - 11:27:52 10° SW 11:42:02 68° SSE 11:59:54 10° ENE visible
01 Mar - 13:38:13 10° W 13:55:16 90° S 14:12:25 10° E visible
01 Mar - 15:50:46 10° W 16:08:58 82° SSW 16:23:21 10° ESE daylight
01 Mar - 18:04:39 10° WNW 18:20:31 49° SW 18:31:32 10° SE daylight
01 Mar - 20:23:00 10° W 20:28:59 14° SW 20:33:59 10° SSW daylight
02 Mar - 09:37:54 10° SSW 09:48:49 41° SE 10:03:59 10° E visible
02 Mar - 11:45:30 10° WSW 11:59:58 77° SSE 12:18:03 10° E visible
02 Mar - 13:56:18 10° W 14:13:32 89° N 14:30:31 10° E daylight
02 Mar - 16:08:55 10° WNW 16:27:00 76° SSW 16:41:06 10° ESE daylight
02 Mar - 18:23:10 10° W 18:37:56 39° SW 18:48:28 10° SSE daylight
03 Mar - 07:51:52 10° SSE 07:57:37 16° SE 08:04:37 10° E visible
03 Mar - 09:54:52 10° SW 10:06:15 51° SE 10:22:27 10° ENE visible
03 Mar - 12:03:17 10° WSW 12:18:00 83° SSE 12:36:11 10° E visible
03 Mar - 14:14:24 10° W 14:31:47 89° S 14:48:34 10° E daylight
03 Mar - 16:27:06 10° WNW 16:44:53 67° SSW 16:58:42 10° SE daylight
03 Mar - 18:41:59 10° W 18:55:11 30° SW 19:05:03 10° SSE daylight
04 Mar - 08:07:09 10° S 08:14:41 23° SE 08:24:48 10° E visible
04 Mar - 10:12:09 10° SW 10:23:51 61° SSE 10:40:46 10° ENE visible
04 Mar - 12:21:10 10° WSW 12:36:09 88° S 12:54:22 10° E visible
04 Mar - 14:32:29 10° W 14:49:58 86° SSW 15:06:35 10° ESE daylight
04 Mar - 16:45:19 10° WNW 17:02:38 58° SSW 17:16:06 10° SE daylight
04 Mar - 19:01:22 10° W 19:12:22 22° SW 19:21:03 10° S daylight
05 Mar - 08:23:22 10° SSW 08:31:49 31° SE 08:43:59 10° E visible
05 Mar - 10:29:37 10° WSW 10:41:36 70° SSE 10:59:00 10° ENE visible
05 Mar - 12:39:08 10° W 12:54:21 90° N 13:12:32 10° E visible
05 Mar - 14:50:34 10° W 15:08:07 80° SSW 15:24:29 10° ESE daylight
05 Mar - 17:03:38 10° WNW 17:20:13 48° SW 17:33:15 10° SSE daylight
05 Mar - 19:21:54 10° W 19:29:30 15° SW 19:36:00 10° SSW daylight
06 Mar - 08:40:06 10° SSW 08:49:05 40° SE 09:02:42 10° E visible
06 Mar - 10:47:15 10° WSW 10:59:30 79° SSE 11:17:13 10° E visible
06 Mar - 12:57:09 10° W 13:12:36 90° N 13:30:42 10° E visible
06 Mar - 15:08:39 10° WNW 15:26:08 73° SSW 15:42:13 10° ESE daylight
06 Mar - 17:22:09 10° W 17:37:40 39° SW 17:50:06 10° SSE daylight
07 Mar - 06:54:29 10° SSE 06:58:35 14° SE 07:03:31 10° ESE night (unlit)
07 Mar - 08:57:10 10° SW 09:06:30 51° SSE 09:21:08 10° ENE visible
07 Mar - 11:05:01 10° WSW 11:17:30 85° SSE 11:35:25 10° E visible
07 Mar - 13:15:09 10° W 13:30:49 88° S 13:48:50 10° E visible
07 Mar - 15:26:45 10° WNW 15:44:02 65° SSW 15:59:48 10° SE daylight
07 Mar - 17:41:02 10° W 17:55:01 30° SW 18:06:32 10° S daylight
